When you browse on this site, cookies collect data to enhance your experience and personalize the content and advertising you see.
Visit our Privacy Policy to learn more. By continuing to use the site, you agree to this use of cookies and data.
  • In United Kingdom
  • List of Countries
  • For 7 days
  • Water Temperature
  • Satellite Maps
  • Weather Map
  • Weather Widgets
  • user-avatar
    Login

    Hourly Weather Tirana

    Today, 17 December, Monday

    Time Temperature Precipitation Wind Pressure Humidity
    00:00 +5°C° 0 mm 2 mps 756 mmHg 71%
    01:00 +5°C° 0 mm 2 mps 755 mmHg 70%
    02:00 +5°C° 0 mm 2 mps 755 mmHg 68%
    03:00 +5°C° 0 mm 2 mps 755 mmHg 65%
    04:00 +6°C° 0 mm 2 mps 755 mmHg 63%
    05:00 +5°C° 0.1 mm 3 mps 754 mmHg 62%
    06:00 +5°C° 0.1 mm 3 mps 754 mmHg 61%
    07:00 +7°C° 0.1 mm 3 mps 754 mmHg 60%
    08:00 +7°C° 0.1 mm 3 mps 753 mmHg 61%
    09:00 +8°C° 0.1 mm 3 mps 753 mmHg 63%
    10:00 +8°C° 0.1 mm 3 mps 753 mmHg 65%
    11:00 +7°C° 0.3 mm 4 mps 752 mmHg 68%
    12:00 +7°C° 0.3 mm 5 mps 752 mmHg 71%
    13:00 +7°C° 0.3 mm 6 mps 751 mmHg 74%
    14:00 +7°C° 1.4 mm 6 mps 751 mmHg 76%
    15:00 +7°C° 1.4 mm 6 mps 751 mmHg 78%
    16:00 +7°C° 1.4 mm 6 mps 750 mmHg 81%
    17:00 +7°C° 1.6 mm 6 mps 750 mmHg 83%
    18:00 +7°C° 1.6 mm 6 mps 750 mmHg 84%
    19:00 +7°C° 1.6 mm 6 mps 750 mmHg 86%
    20:00 +5°C° 1.3 mm 6 mps 751 mmHg 86%
    21:00 +5°C° 1.3 mm 6 mps 751 mmHg 86%
    22:00 +5°C° 1.3 mm 6 mps 752 mmHg 86%
    23:00 +5°C° 0.3 mm 6 mps 752 mmHg 85%

    Tomorrow, 18 December, Tuesday

    Time Temperature Precipitation Wind Pressure Humidity
    00:00 +4°C° 0.3 mm 6 mps 752 mmHg 84%
    01:00 +4°C° 0.3 mm 6 mps 753 mmHg 82%
    02:00 +4°C° 0.1 mm 6 mps 753 mmHg 81%
    03:00 +4°C° 0.1 mm 6 mps 753 mmHg 80%
    04:00 +3°C° 0.1 mm 6 mps 753 mmHg 79%
    05:00 +3°C° 0 mm 6 mps 754 mmHg 79%
    06:00 +3°C° 0 mm 6 mps 754 mmHg 78%
    07:00 +3°C° 0 mm 6 mps 755 mmHg 77%
    08:00 +3°C° 0 mm 6 mps 755 mmHg 76%
    09:00 +4°C° 0 mm 6 mps 756 mmHg 74%
    10:00 +5°C° 0 mm 6 mps 756 mmHg 73%
    11:00 +5°C° 0 mm 6 mps 756 mmHg 73%
    12:00 +7°C° 0 mm 6 mps 756 mmHg 73%
    13:00 +8°C° 0 mm 6 mps 756 mmHg 73%
    14:00 +7°C° 0 mm 6 mps 756 mmHg 74%
    15:00 +6°C° 0 mm 5 mps 756 mmHg 75%
    16:00 +5°C° 0 mm 5 mps 757 mmHg 77%
    17:00 +5°C° 0 mm 5 mps 757 mmHg 77%
    18:00 +3°C° 0 mm 5 mps 758 mmHg 78%
    19:00 +2°C° 0 mm 5 mps 758 mmHg 78%
    20:00 +2°C° 0 mm 5 mps 758 mmHg 78%
    21:00 +3°C° 0 mm 4 mps 759 mmHg 77%
    22:00 +3°C° 0 mm 4 mps 759 mmHg 77%
    23:00 +1°C° 0 mm 4 mps 759 mmHg 77%

    Day after tomorrow, 19 December, Wednesday

    Time Temperature Precipitation Wind Pressure Humidity
    00:00 +1°C° 0 mm 4 mps 759 mmHg 76%
    01:00 +2°C° 0 mm 3 mps 759 mmHg 76%
    02:00 +2°C° 0 mm 3 mps 759 mmHg 76%
    03:00 +2°C° 0 mm 3 mps 759 mmHg 75%
    04:00 +2°C° 0 mm 3 mps 759 mmHg 75%
    05:00 +2°C° 0 mm 3 mps 759 mmHg 74%
    06:00 +2°C° 0 mm 3 mps 760 mmHg 74%
    07:00 +3°C° 0 mm 2 mps 760 mmHg 73%
    08:00 +5°C° 0 mm 2 mps 760 mmHg 71%
    09:00 +6°C° 0 mm 2 mps 760 mmHg 69%
    10:00 +8°C° 0 mm 2 mps 760 mmHg 68%
    11:00 +10°C° 0 mm 1 mps 760 mmHg 66%
    12:00 +10°C° 0 mm 1 mps 759 mmHg 64%
    13:00 +11°C° 0 mm 1 mps 759 mmHg 62%
    14:00 +10°C° 0 mm 1 mps 759 mmHg 66%
    15:00 +9°C° 0 mm 1 mps 759 mmHg 69%
    16:00 +8°C° 0 mm 1 mps 759 mmHg 72%
    17:00 +7°C° 0 mm 1 mps 759 mmHg 72%
    18:00 +7°C° 0 mm 1 mps 760 mmHg 72%
    19:00 +6°C° 0 mm 1 mps 760 mmHg 72%
    20:00 +5°C° 0 mm 2 mps 760 mmHg 71%
    21:00 +5°C° 0 mm 2 mps 760 mmHg 70%
    22:00 +5°C° 0 mm 2 mps 760 mmHg 68%
    23:00 +5°C° 0 mm 2 mps 760 mmHg 67%

    20 December, Thursday

    Time Temperature Precipitation Wind Pressure Humidity
    00:00 +5°C° 0 mm 2 mps 760 mmHg 65%
    01:00 +4°C° 0 mm 2 mps 760 mmHg 64%
    02:00 +3°C° 0 mm 3 mps 760 mmHg 62%
    03:00 +3°C° 0 mm 3 mps 760 mmHg 61%
    04:00 +3°C° 0 mm 3 mps 760 mmHg 59%
    05:00 +3°C° 0 mm 3 mps 760 mmHg 57%
    06:00 +3°C° 0 mm 4 mps 760 mmHg 56%
    07:00 +3°C° 0 mm 4 mps 760 mmHg 54%
    08:00 +5°C° 0 mm 4 mps 760 mmHg 54%
    09:00 +7°C° 0 mm 4 mps 760 mmHg 54%
    10:00 +8°C° 0 mm 5 mps 760 mmHg 54%
    11:00 +9°C° 0 mm 5 mps 759 mmHg 54%
    12:00 +10°C° 0 mm 5 mps 759 mmHg 54%
    13:00 +12°C° 0 mm 5 mps 758 mmHg 54%
    14:00 +10°C° 0.1 mm 5 mps 758 mmHg 56%
    15:00 +9°C° 0.1 mm 6 mps 758 mmHg 59%
    16:00 +8°C° 0.1 mm 6 mps 758 mmHg 61%
    17:00 +8°C° 0.2 mm 6 mps 758 mmHg 64%
    18:00 +8°C° 0.2 mm 6 mps 758 mmHg 67%
    19:00 +6°C° 0.2 mm 7 mps 758 mmHg 70%
    20:00 +7°C° 0.4 mm 6 mps 758 mmHg 72%
    21:00 +7°C° 0.4 mm 6 mps 758 mmHg 75%
    22:00 +7°C° 0.4 mm 6 mps 758 mmHg 77%
    23:00 +7°C° 0.3 mm 5 mps 758 mmHg 79%

    21 December, Friday

    Time Temperature Precipitation Wind Pressure Humidity
    00:00 +8°C° 0.3 mm 5 mps 758 mmHg 82%
    01:00 +8°C° 0.3 mm 4 mps 758 mmHg 84%
    02:00 +8°C° 0.2 mm 4 mps 758 mmHg 85%
    03:00 +7°C° 0.2 mm 4 mps 758 mmHg 87%
    04:00 +8°C° 0.2 mm 3 mps 758 mmHg 88%
    05:00 +8°C° 0.1 mm 3 mps 758 mmHg 88%
    06:00 +8°C° 0.1 mm 3 mps 758 mmHg 89%
    07:00 +8°C° 0.1 mm 3 mps 758 mmHg 90%
    08:00 +9°C° 0.4 mm 3 mps 759 mmHg 88%
    09:00 +10°C° 0.4 mm 3 mps 759 mmHg 86%
    10:00 +11°C° 0.4 mm 3 mps 759 mmHg 84%
    11:00 +12°C° 0.4 mm 3 mps 759 mmHg 82%
    12:00 +12°C° 0.4 mm 3 mps 758 mmHg 79%
    13:00 +12°C° 0.4 mm 4 mps 758 mmHg 77%
    14:00 +12°C° 0.2 mm 3 mps 759 mmHg 80%
    15:00 +11°C° 0.2 mm 3 mps 759 mmHg 83%
    16:00 +10°C° 0.2 mm 2 mps 759 mmHg 85%
    17:00 +9°C° 0 mm 2 mps 759 mmHg 86%
    18:00 +9°C° 0 mm 2 mps 760 mmHg 88%
    19:00 +8°C° 0 mm 2 mps 760 mmHg 89%
    20:00 +8°C° 0 mm 2 mps 761 mmHg 89%
    21:00 +7°C° 0 mm 2 mps 761 mmHg 88%
    22:00 +7°C° 0 mm 2 mps 761 mmHg 88%
    23:00 +7°C° 0 mm 2 mps 761 mmHg 86%

    22 December, Saturday

    Time Temperature Precipitation Wind Pressure Humidity
    00:00 +6°C° 0 mm 2 mps 761 mmHg 85%
    01:00 +6°C° 0 mm 2 mps 761 mmHg 83%
    02:00 +6°C° 0 mm 2 mps 760 mmHg 83%
    03:00 +6°C° 0 mm 2 mps 760 mmHg 82%
    04:00 +6°C° 0 mm 2 mps 760 mmHg 81%
    05:00 +6°C° 0 mm 2 mps 761 mmHg 81%
    06:00 +6°C° 0 mm 2 mps 761 mmHg 81%
    07:00 +6°C° 0 mm 2 mps 761 mmHg 81%
    08:00 +7°C° 0 mm 2 mps 761 mmHg 77%
    09:00 +9°C° 0 mm 2 mps 761 mmHg 73%
    10:00 +10°C° 0 mm 2 mps 761 mmHg 69%
    11:00 +12°C° 0 mm 2 mps 761 mmHg 68%
    12:00 +12°C° 0 mm 2 mps 761 mmHg 67%
    13:00 +13°C° 0 mm 1 mps 761 mmHg 66%
    14:00 +12°C° 0 mm 1 mps 761 mmHg 71%
    15:00 +11°C° 0 mm 1 mps 761 mmHg 75%
    16:00 +10°C° 0 mm 1 mps 761 mmHg 80%
    17:00 +10°C° 0 mm 1 mps 761 mmHg 81%
    18:00 +9°C° 0 mm 1 mps 762 mmHg 82%
    19:00 +9°C° 0 mm 1 mps 762 mmHg 83%
    20:00 +7°C° 0 mm 2 mps 762 mmHg 83%
    21:00 +7°C° 0 mm 2 mps 762 mmHg 83%
    22:00 +7°C° 0 mm 2 mps 762 mmHg 83%
    23:00 +7°C° 0 mm 2 mps 762 mmHg 83%
    Show more